Location: Shades State Park
(39.9310°N, 87.0690°W)
Time: 19:09:21
(UTC-05:00)

ISS - Visible Passes

Search period start: 22 December 2014 00:00
Search period end: 01 January 2015 00:00
Orbit: 404 x 414 km, 51.6° (Epoch: 22 December)

Date Brightness Start Highest point End Pass type
(mag) Time Alt. Az. Time Alt. Az. Time Alt. Az.
22 Dec -1.7 18:39:34 10° NNW 18:42:03 20° NNE 18:42:17 19° NNE visible
23 Dec -1.8 19:24:50 10° NW 19:26:41 30° NW 19:26:41 30° NW visible
24 Dec -2.6 18:34:05 10° NW 18:37:08 35° NNE 18:38:28 24° ENE visible
24 Dec 0.0 20:10:50 10° WNW 20:11:16 13° W 20:11:16 13° W visible
25 Dec -2.5 19:19:37 10° WNW 19:22:48 50° SW 19:23:18 44° S visible
26 Dec -3.4 18:28:35 10° NW 18:31:53 83° NE 18:35:08 10° SE visible
27 Dec -0.5 19:14:47 10° W 19:17:10 19° SW 19:19:32 10° S visible
28 Dec -1.5 18:23:14 10° WNW 18:26:16 35° SW 18:29:17 10° SSE visible
30 Dec 0.1 18:18:35 10° W 18:20:20 14° SW 18:22:04 10° SSW visible
